When you browse on this site, cookies collect data to enhance your experience and personalize the content and advertising you see.
Visit our Privacy Policy to learn more. By continuing to use the site, you agree to this use of cookies and data.
EN

Hourly Weather Misilmeri

Today, 15 August, Saturday

Time Temperature Precipitation Wind Pressure Humidity
00:00 +28°C° 0 mm 1 mps 748 mmHg 53%
01:00 +28°C° 0 mm 1 mps 747 mmHg 54%
02:00 +28°C° 0 mm 1 mps 747 mmHg 54%
03:00 +28°C° 0 mm 1 mps 747 mmHg 54%
04:00 +28°C° 0 mm 1 mps 746 mmHg 54%
05:00 +29°C° 0 mm 1 mps 746 mmHg 49%
06:00 +31°C° 0 mm 1 mps 747 mmHg 45%
07:00 +32°C° 0 mm 1 mps 747 mmHg 40%
08:00 +35°C° 0 mm 2 mps 747 mmHg 37%
09:00 +36°C° 0 mm 3 mps 747 mmHg 33%
10:00 +38°C° 0 mm 3 mps 747 mmHg 29%
11:00 +38°C° 0 mm 3 mps 747 mmHg 30%
12:00 +38°C° 0 mm 3 mps 747 mmHg 30%
13:00 +38°C° 0 mm 3 mps 747 mmHg 31%
14:00 +38°C° 0 mm 3 mps 747 mmHg 34%
15:00 +37°C° 0 mm 3 mps 747 mmHg 36%
16:00 +37°C° 0 mm 3 mps 747 mmHg 38%
17:00 +34°C° 0 mm 2 mps 746 mmHg 47%
18:00 +31°C° 0 mm 1 mps 746 mmHg 56%
19:00 +29°C° 0 mm 1 mps 746 mmHg 66%
20:00 +28°C° 0 mm 1 mps 746 mmHg 67%
21:00 +28°C° 0 mm 1 mps 746 mmHg 68%
22:00 +27°C° 0 mm 1 mps 747 mmHg 69%
23:00 +28°C° 0 mm 1 mps 746 mmHg 64%

Tomorrow, 16 August, Sunday

Time Temperature Precipitation Wind Pressure Humidity
00:00 +28°C° 0 mm 1 mps 746 mmHg 59%
01:00 +28°C° 0 mm 1 mps 746 mmHg 54%
02:00 +28°C° 0 mm 1 mps 746 mmHg 53%
03:00 +27°C° 0 mm 1 mps 746 mmHg 51%
04:00 +27°C° 0 mm 2 mps 745 mmHg 49%
05:00 +28°C° 0 mm 2 mps 746 mmHg 46%
06:00 +29°C° 0 mm 2 mps 746 mmHg 42%
07:00 +30°C° 0 mm 2 mps 746 mmHg 39%
08:00 +34°C° 0 mm 2 mps 746 mmHg 34%
09:00 +36°C° 0 mm 2 mps 747 mmHg 29%
10:00 +38°C° 0 mm 3 mps 747 mmHg 24%
11:00 +39°C° 0 mm 3 mps 747 mmHg 24%
12:00 +40°C° 0 mm 4 mps 747 mmHg 24%
13:00 +41°C° 0 mm 4 mps 747 mmHg 24%
14:00 +40°C° 0 mm 4 mps 746 mmHg 25%
15:00 +40°C° 0 mm 4 mps 746 mmHg 26%
16:00 +38°C° 0 mm 3 mps 746 mmHg 27%
17:00 +36°C° 0 mm 3 mps 746 mmHg 34%
18:00 +34°C° 0 mm 2 mps 746 mmHg 40%
19:00 +31°C° 0 mm 1 mps 746 mmHg 46%
20:00 +30°C° 0 mm 1 mps 746 mmHg 47%
21:00 +29°C° 0 mm 1 mps 746 mmHg 47%
22:00 +29°C° 0 mm 1 mps 746 mmHg 48%
23:00 +29°C° 0 mm 1 mps 746 mmHg 48%

Day after tomorrow, 17 August, Monday

Time Temperature Precipitation Wind Pressure Humidity
00:00 +28°C° 0 mm 1 mps 746 mmHg 48%
01:00 +28°C° 0 mm 1 mps 746 mmHg 47%
02:00 +28°C° 0 mm 1 mps 746 mmHg 47%
03:00 +28°C° 0 mm 1 mps 746 mmHg 47%
04:00 +28°C° 0 mm 1 mps 746 mmHg 47%
05:00 +29°C° 0 mm 1 mps 746 mmHg 44%
06:00 +30°C° 0 mm 1 mps 746 mmHg 41%
07:00 +31°C° 0 mm 1 mps 746 mmHg 38%
08:00 +33°C° 0 mm 1 mps 746 mmHg 34%
09:00 +37°C° 0 mm 2 mps 746 mmHg 29%
10:00 +39°C° 0 mm 2 mps 747 mmHg 24%
11:00 +39°C° 0 mm 3 mps 747 mmHg 25%
12:00 +40°C° 0 mm 3 mps 747 mmHg 25%
13:00 +41°C° 0 mm 4 mps 747 mmHg 26%
14:00 +40°C° 0 mm 4 mps 747 mmHg 29%
15:00 +38°C° 0 mm 4 mps 746 mmHg 32%
16:00 +37°C° 0 mm 4 mps 746 mmHg 35%
17:00 +35°C° 0 mm 3 mps 746 mmHg 45%
18:00 +31°C° 0 mm 2 mps 746 mmHg 55%
19:00 +29°C° 0 mm 1 mps 746 mmHg 65%
20:00 +28°C° 0 mm 1 mps 746 mmHg 67%
21:00 +28°C° 0 mm 1 mps 746 mmHg 69%
22:00 +25°C° 0 mm 0 mps 747 mmHg 71%
23:00 +27°C° 0 mm 1 mps 747 mmHg 67%

18 August, Tuesday

Time Temperature Precipitation Wind Pressure Humidity
00:00 +27°C° 0 mm 1 mps 747 mmHg 63%
01:00 +27°C° 0 mm 1 mps 747 mmHg 59%
02:00 +27°C° 0 mm 1 mps 746 mmHg 55%
03:00 +27°C° 0 mm 1 mps 746 mmHg 51%
04:00 +27°C° 0 mm 1 mps 746 mmHg 47%
05:00 +28°C° 0 mm 1 mps 746 mmHg 43%
06:00 +29°C° 0 mm 1 mps 746 mmHg 39%
07:00 +31°C° 0 mm 1 mps 746 mmHg 34%
08:00 +33°C° 0 mm 1 mps 746 mmHg 30%
09:00 +36°C° 0 mm 2 mps 746 mmHg 26%
10:00 +39°C° 0 mm 3 mps 746 mmHg 22%
11:00 +39°C° 0 mm 3 mps 746 mmHg 22%
12:00 +39°C° 0 mm 3 mps 746 mmHg 23%
13:00 +41°C° 0 mm 4 mps 746 mmHg 24%
14:00 +39°C° 0 mm 3 mps 746 mmHg 25%
15:00 +39°C° 0 mm 3 mps 745 mmHg 26%
16:00 +38°C° 0 mm 3 mps 745 mmHg 26%
17:00 +36°C° 0 mm 2 mps 745 mmHg 33%
18:00 +32°C° 0 mm 2 mps 745 mmHg 39%
19:00 +30°C° 0 mm 1 mps 745 mmHg 45%
20:00 +30°C° 0 mm 1 mps 745 mmHg 45%
21:00 +29°C° 0 mm 1 mps 746 mmHg 44%
22:00 +27°C° 0 mm 0 mps 746 mmHg 44%
23:00 +28°C° 0 mm 1 mps 746 mmHg 45%

19 August, Wednesday

Time Temperature Precipitation Wind Pressure Humidity
00:00 +28°C° 0 mm 1 mps 745 mmHg 46%
01:00 +28°C° 0 mm 1 mps 745 mmHg 48%
02:00 +27°C° 0 mm 1 mps 745 mmHg 50%
03:00 +27°C° 0 mm 1 mps 744 mmHg 53%
04:00 +26°C° 0 mm 1 mps 744 mmHg 55%
05:00 +27°C° 0 mm 1 mps 744 mmHg 50%
06:00 +28°C° 0 mm 1 mps 745 mmHg 45%
07:00 +30°C° 0 mm 1 mps 745 mmHg 40%
08:00 +31°C° 0 mm 1 mps 745 mmHg 36%
09:00 +34°C° 0 mm 2 mps 745 mmHg 33%
10:00 +36°C° 0 mm 2 mps 745 mmHg 29%
11:00 +37°C° 0 mm 3 mps 745 mmHg 27%
12:00 +37°C° 0 mm 3 mps 745 mmHg 26%
13:00 +38°C° 0 mm 4 mps 745 mmHg 24%
14:00 +37°C° 0 mm 4 mps 745 mmHg 29%
15:00 +36°C° 0 mm 4 mps 745 mmHg 34%
16:00 +34°C° 0 mm 4 mps 745 mmHg 39%
17:00 +31°C° 0 mm 3 mps 745 mmHg 50%
18:00 +29°C° 0 mm 2 mps 744 mmHg 60%
19:00 +27°C° 0 mm 2 mps 744 mmHg 70%
20:00 +26°C° 0 mm 1 mps 745 mmHg 75%
21:00 +25°C° 0 mm 1 mps 745 mmHg 79%
22:00 +24°C° 0 mm 1 mps 745 mmHg 83%
23:00 +24°C° 0 mm 1 mps 745 mmHg 78%

20 August, Thursday

Time Temperature Precipitation Wind Pressure Humidity
00:00 +24°C° 0 mm 1 mps 745 mmHg 73%
01:00 +24°C° 0 mm 1 mps 745 mmHg 67%
02:00 +24°C° 0 mm 1 mps 745 mmHg 65%
03:00 +24°C° 0 mm 1 mps 744 mmHg 63%
04:00 +24°C° 0 mm 1 mps 744 mmHg 60%
05:00 +25°C° 0 mm 2 mps 745 mmHg 55%
06:00 +26°C° 0 mm 2 mps 745 mmHg 50%
07:00 +28°C° 0 mm 2 mps 745 mmHg 45%
08:00 +29°C° 0 mm 2 mps 745 mmHg 41%
09:00 +31°C° 0 mm 3 mps 746 mmHg 36%
10:00 +34°C° 0 mm 3 mps 746 mmHg 32%
11:00 +35°C° 0 mm 4 mps 746 mmHg 31%
12:00 +36°C° 0 mm 4 mps 746 mmHg 31%
13:00 +36°C° 0 mm 5 mps 746 mmHg 30%
14:00 +36°C° 0 mm 4 mps 746 mmHg 32%
15:00 +35°C° 0 mm 4 mps 746 mmHg 34%
16:00 +34°C° 0 mm 4 mps 746 mmHg 35%
17:00 +32°C° 0 mm 4 mps 746 mmHg 44%
18:00 +29°C° 0 mm 3 mps 746 mmHg 52%
19:00 +27°C° 0 mm 3 mps 746 mmHg 61%
20:00 +26°C° 0 mm 3 mps 746 mmHg 66%
21:00 +25°C° 0 mm 3 mps 746 mmHg 71%
22:00 +24°C° 0 mm 3 mps 747 mmHg 76%
23:00 +24°C° 0 mm 3 mps 747 mmHg 77%
Show more